User: anonymous   Login
Location: Unspecified
(0.0000°N, 0.0000°E)
Time: 22:49:42
(UTC+00:00)
Language:

Orbcomm G2 (FM04) - Orbit

View from above orbital plane
View from above orbital plane
View from above satellite
View from above satellite

Ground track
Ground track

The orbit data is extracted from the following two-line orbital elements,

1 25159U 98007C   17113.90544454 +.00000263 +00000-0 +15326-3 0  9995
2 25159 107.9841 176.4214 0043241 009.2017 350.9904 14.29364444998616
Epoch (UTC): 23 April 2017 21:43:50
Eccentricity: 0.0043241
inclination: 107.9841°
perigee height: 763 km
apogee height: 825 km
right ascension of ascending node: 176.4214°
argument of perigee: 9.2017°
revolutions per day: 14.29364444
mean anomaly at epoch: 350.9904°
orbit number at epoch: 99861

The dashed part of the orbit path shows where the satellite is in the earth's shadow,  

DLR